RH
31 32 31 29 33 39 41 45 53 66 81 85 90 98 97 94 94 96 97 98 99 99 100 102 103 103 101 99 100 100 99 100 100 100 99 99 100 100 100 100 100 100 99 100 101 102 103 103 104 103 103 103 101 99 95 92 90 88 85 82 78 74 68 63 58 55 54 56 57 56 55 55 56 58 58 60 62 67 68 66 69 73 77 84 85 82 80 83
33 32 33 30 34 42 45 49 54 62 78 87 86 90 94 95 97 100 99 99 101 101 101 101 101 104 106 104 103 103 101 101 101 101 100 99 100 100 100 100 100 100 101 102 102 104 105 105 106 104 102 100 96 93 90 88 85 83 79 74 69 63 58 54 52 52 55 57 57 56 58 61 65 66 64 64 65 68 67 70 81 85 87 94 91 83 79 78
35 33 34 32 33 43 48 50 56 62 72 85 89 89 92 94 95 98 99 100 101 101 101 100 99 101 103 103 105 105 105 105 104 104 102 101 101 101 102 103 104 105 107 109 106 107 109 107 106 103 101 98 92 87 84 81 79 76 71 65 59 54 53 52 52 53 55 57 60 67 74 78 78 76 73 73 74 73 68 66 78 87 92 100 99 93 89 87
37 35 35 34 33 43 51 52 56 64 72 82 92 94 93 94 96 98 99 99 99 100 101 102 102 101 102 102 103 103 105 107 105 104 103 102 102 103 105 105 106 107 108 108 106 105 106 105 105 102 97 91 85 80 78 76 73 68 61 55 53 53 53 53 54 55 60 67 75 84 90 88 83 75 71 72 76 80 79 73 74 84 93 98 101 102 99 100
37 36 36 35 34 41 52 54 56 64 74 85 96 100 97 96 99 100 100 98 97 97 98 100 100 100 100 101 101 100 100 101 101 102 101 100 100 102 103 102 101 102 102 104 105 105 105 104 101 94 87 81 79 77 75 71 64 57 53 52 53 54 53 54 58 64 73 81 87 95 98 95 88 76 68 64 67 73 78 79 77 82 93 96 99 104 103 105
38 37 37 37 35 41 52 56 58 64 75 86 96 99 96 94 93 91 88 87 87 88 89 91 93 94 96 97 98 97 96 97 97 98 98 97 98 98 99 100 99 100 101 102 102 101 99 94 88 82 79 78 78 74 69 62 54 50 51 53 54 52 53 59 67 76 86 90 94 100 99 93 85 81 77 68 63 62 65 71 73 79 89 97 101 105 104 105
38 38 37 38 36 39 51 57 58 65 76 86 93 94 91 88 85 80 76 75 76 77 79 80 81 83 85 87 89 89 89 90 91 93 92 92 92 92 93 93 94 95 95 94 92 90 86 80 77 78 79 78 73 66 59 53 48 49 52 53 52 53 59 67 77 89 95 94 94 91 87 84 83 88 93 88 80 74 68 64 63 68 77 92 103 103 102 102
37 39 38 38 37 37 48 58 59 63 72 81 88 88 85 83 81 78 75 75 77 77 78 78 79 79 80 81 81 81 81 81 82 81 81 81 82 83 84 85 87 87 87 87 86 81 75 73 76 79 78 72 63 56 51 49 50 53 54 52 53 59 67 74 84 93 91 86 86 81 76 80 86 92 96 100 101 95 88 75 64 62 65 78 93 99 104 102
36 39 40 38 38 37 44 57 59 60 67 74 80 82 83 83 82 81 79 79 78 78 78 79 80 80 80 79 77 78 77 77 76 75 77 78 79 81 82 84 84 85 87 86 80 73 71 75 77 75 69 62 55 51 51 53 54 53 52 56 62 66 69 76 85 87 81 80 81 75 70 79 91 93 93 101 104 100 99 93 76 69 69 70 81 97 104 99
37 37 41 39 38 37 42 56 59 58 63 70 76 80 83 84 84 83 80 78 76 75 75 76 75 74 73 71 70 71 71 71 72 73 75 76 80 82 82 83 85 87 86 80 75 73 76 77 72 65 59 55 52 53 55 56 54 54 58 65 68 67 68 75 80 79 78 78 78 71 70 88 98 92 94 103 102 98 100 99 86 76 78 78 87 103 102 94
39 37 40 40 39 38 40 52 59 58 60 67 73 79 81 81 81 78 75 72 70 70 71 72 71 70 68 66 66 66 65 66 68 70 73 77 81 82 82 85 87 85 79 74 74 74 72 67 61 57 54 52 52 55 57 55 56 61 67 70 71 72 74 77 76 75 75 75 76 70 74 97 103 92 98 106 103 101 99 100 97 87 83 81 87 95 90 85
40 38 39 41 40 39 39 48 59 59 60 67 72 76 76 75 74 71 69 67 65 66 67 68 67 66 65 64 64 62 61 62 65 67 71 75 76 76 78 80 79 74 69 69 69 65 60 57 56 55 52 52 54 56 56 57 64 71 73 76 81 81 79 78 76 73 71 73 77 74 84 105 107 95 98 103 101 102 100 99 101 98 95 91 85 84 82 80
41 39 39 42 41 40 40 45 57 61 61 66 70 71 71 69 68 67 65 63 62 62 62 61 58 56 55 54 53 52 52 54 57 59 62 63 62 64 65 65 63 60 60 62 60 56 54 55 56 54 52 53 55 57 59 65 74 80 82 86 87 81 76 73 70 68 66 71 75 78 93 108 107 100 97 98 98 100 104 102 102 103 102 97 90 89 90 89
41 41 38 43 42 41 41 41 54 62 61 63 65 67 66 65 63 61 61 59 57 54 51 48 45 43 42 42 42 41 43 46 47 49 50 50 51 53 52 51 50 52 55 56 55 54 53 54 54 53 52 51 54 59 64 74 82 85 86 84 79 72 65 61 60 63 66 76 84 86 95 103 104 104 103 103 99 96 99 101 102 107 106 100 97 97 96 96
41 42 39 43 43 42 42 39 49 61 61 60 61 62 62 60 58 57 56 53 48 43 41 40 39 39 40 39 38 39 42 43 43 42 41 43 46 47 45 44 47 51 53 54 55 53 52 54 53 53 50 51 58 65 72 85 92 89 81 73 70 66 58 56 61 64 65 75 90 93 91 92 96 100 104 107 104 92 85 86 86 90 99 105 105 102 99 99
41 42 40 43 44 42 42 39 43 57 61 59 59 60 60 58 56 54 50 45 40 38 41 44 43 41 40 40 41 42 42 41 40 41 44 47 48 45 43 46 50 52 53 54 54 52 53 53 53 52 49 56 66 72 84 97 98 83 70 67 70 71 64 59 61 60 58 63 74 83 83 85 90 92 94 99 103 92 74 72 73 76 93 104 105 103 101 102
41 43 42 43 44 42 42 39 39 52 62 61 59 58 57 57 54 51 44 38 38 40 44 44 41 37 35 37 39 40 40 40 43 45 49 52 51 47 46 48 49 51 53 54 54 54 52 51 53 52 51 63 72 79 95 100 89 71 66 71 76 80 76 68 64 58 63 68 62 65 75 84 87 83 86 88 92 87 67 63 68 75 93 102 102 102 102 105
41 43 43 44 44 41 42 40 39 52 64 63 57 55 54 55 52 46 38 35 38 41 39 36 34 33 32 32 34 37 40 43 45 46 51 53 51 49 47 48 48 51 53 55 57 53 49 53 56 54 58 68 74 86 101 95 78 70 73 77 79 87 86 80 79 75 83 90 73 64 73 82 81 77 82 82 81 80 63 57 64 74 92 101 103 104 106 109
42 43 44 44 43 41 41 40 39 50 63 61 55 52 52 52 49 41 33 33 37 37 33 30 33 34 32 31 32 34 38 41 44 47 51 51 49 47 45 47 50 54 57 57 56 50 49 55 58 66 71 69 75 93 102 87 74 79 82 78 82 92 93 91 96 95 99 102 90 88 92 90 84 81 85 82 79 81 70 62 67 80 96 103 103 104 104 104
42 43 44 44 43 41 42 41 38 45 58 58 52 50 50 51 46 37 31 32 33 32 29 31 35 34 29 29 29 31 33 37 43 47 47 45 43 43 44 49 52 56 59 57 53 50 50 53 63 80 79 68 79 94 89 75 78 92 88 81 90 94 94 100 105 107 107 104 100 104 108 100 94 96 96 86 80 82 77 71 74 86 101 104 104 106 105 102
42 44 44 44 43 41 42 41 37 40 52 56 51 49 49 49 42 34 31 31 30 28 28 32 33 28 24 26 28 29 31 33 40 43 43 42 40 43 47 50 52 55 58 55 53 53 56 62 67 74 74 71 75 74 70 70 83 95 86 85 95 88 88 102 108 110 110 109 107 106 106 99 93 98 101 93 89 89 83 77 79 91 103 106 106 108 108 107
41 46 44 43 42 41 41 41 37 38 50 55 51 48 47 46 39 32 30 31 30 27 29 31 28 25 24 26 28 29 30 32 37 40 41 41 42 48 51 50 52 56 57 54 57 65 74 76 61 54 64 66 59 56 64 72 75 80 80 87 93 81 84 100 103 104 106 109 109 104 103 99 92 97 106 106 105 102 94 88 90 98 106 108 108 108 109 109
40 46 45 44 42 40 40 40 38 38 48 55 50 47 46 43 36 32 31 30 29 29 31 29 26 28 28 28 31 33 33 34 39 43 44 46 49 51 53 54 56 57 57 62 75 85 83 68 47 44 52 50 51 57 64 70 71 75 81 89 91 81 84 94 96 96 98 103 108 105 105 104 100 103 109 108 105 106 106 104 105 105 105 103 102 104 105 103
39 45 46 45 41 40 40 40 39 38 48 54 50 48 45 40 35 32 31 28 29 34 32 27 28 33 32 31 34 34 35 36 41 48 52 55 55 52 54 58 57 56 60 69 78 77 65 50 39 42 45 45 56 62 64 74 83 86 86 90 93 84 81 88 92 93 89 90 101 106 106 103 101 102 102 100 101 102 99 95 94 92 88 85 84 87 89 88
40 43 46 46 42 41 40 41 40 38 47 52 49 48 44 38 33 32 33 26 29 39 34 28 32 38 36 33 34 33 35 40 42 49 56 57 53 51 55 57 58 63 62 58 58 53 46 43 41 45 46 52 62 64 68 84 95 97 92 93 95 85 82 88 94 97 90 83 86 90 90 87 86 87 86 87 91 90 81 74 71 69 68 67 66 67 68 68
40 42 44 45 44 42 40 41 40 38 47 52 49 47 43 37 31 34 35 26 33 44 36 31 36 43 41 35 36 36 39 47 48 52 57 53 50 54 59 61 66 66 51 42 45 44 43 44 45 47 49 57 65 69 80 93 102 102 95 93 90 86 93 97 98 103 98 92 88 82 81 76 68 69 72 76 80 77 73 71 69 66 66 65 63 63 62 62
40 42 42 43 45 43 40 42 40 40 49 51 48 47 43 36 32 39 39 34 47 48 34 34 40 46 44 38 42 45 46 53 55 55 55 50 50 57 65 69 64 50 39 44 48 46 48 50 52 52 53 60 68 78 93 100 103 102 92 88 87 92 104 102 99 100 95 94 95 91 92 88 79 81 87 89 87 81 82 87 87 84 81 78 73 69 69 71
39 42 43 41 44 44 41 42 41 42 49 50 49 48 43 35 32 41 44 49 61 48 31 38 46 48 46 40 44 47 50 54 55 56 53 49 52 57 63 63 49 38 44 53 51 49 53 56 59 57 57 64 72 86 100 100 103 100 85 84 94 103 105 100 100 100 94 94 97 97 101 101 102 104 102 98 90 84 86 88 86 82 75 69 64 60 59 59
37 41 44 41 42 44 42 42 42 43 47 49 51 49 43 35 31 39 45 53 58 42 32 40 47 52 49 45 47 46 51 58 59 60 58 55 54 50 50 47 39 43 50 52 51 55 59 59 60 57 59 68 76 92 103 100 103 98 82 87 104 108 103 99 102 101 96 98 101 104 106 106 107 100 91 84 77 72 69 64 62 60 58 54 51 49 47 46
37 40 45 42 40 43 43 42 43 44 45 49 53 50 43 34 32 39 45 50 49 37 36 39 43 52 50 55 63 53 52 61 63 64 64 64 56 43 39 38 40 48 49 50 55 60 63 61 56 52 57 67 75 90 102 103 104 96 89 97 105 106 103 101 104 101 97 100 101 102 105 104 95 80 70 65 60 57 54 51 51 51 51 50 48 48 48 47
37 39 43 44 42 41 43 44 44 44 45 49 54 50 43 34 34 40 45 52 47 33 37 42 41 48 50 59 71 66 65 71 70 67 63 61 55 41 34 35 41 46 46 49 54 57 60 58 50 47 53 63 71 82 97 106 103 94 95 101 102 104 102 100 105 101 93 91 87 83 86 83 72 61 56 54 53 53 52 51 52 53 55 56 57 58 57 57
38 38 41 44 43 41 43 45 45 45 44 48 54 51 43 36 36 42 44 51 50 34 35 41 42 50 54 56 65 75 84 82 71 64 53 48 49 41 35 39 43 45 44 46 48 50 52 49 46 48 54 63 70 79 95 103 96 91 97 100 100 102 103 105 106 94 80 76 69 63 63 64 59 55 53 52 53 55 57 59 60 64 67 67 68 67 66 65
40 38 40 44 44 42 43 45 45 45 44 48 55 51 43 38 38 46 50 51 47 36 34 40 43 50 54 56 64 77 90 86 68 55 43 38 43 43 41 44 45 44 44 44 45 46 47 48 51 57 64 71 76 83 93 92 87 93 98 98 100 104 104 100 89 75 70 73 68 58 55 57 56 54 54 56 60 63 67 69 69 72 74 73 71 68 65 63
44 40 40 43 44 43 43 45 46 45 45 48 53 50 45 41 39 46 55 54 46 37 35 42 44 45 50 61 72 78 86 83 60 46 40 36 41 47 47 47 44 44 44 42 43 45 49 54 60 67 75 79 80 83 85 84 88 97 100 101 103 99 94 83 68 60 62 65 63 56 55 59 58 58 62 67 70 72 73 70 68 68 68 66 63 61 60 58
47 43 42 43 44 44 44 46 46 46 46 47 51 50 45 44 41 44 53 55 48 38 37 48 48 44 49 63 76 78 77 70 50 38 39 39 44 50 50 46 43 43 42 41 47 53 58 64 67 74 81 81 81 85 88 91 96 99 101 101 93 85 84 77 67 63 60 57 60 62 66 68 66 66 69 71 72 70 67 63 61 61 61 61 60 61 60 58
52 46 45 44 43 43 45 46 45 46 47 46 49 50 47 46 45 46 51 56 53 40 39 51 51 44 48 59 69 69 62 54 42 35 38 44 50 53 49 45 43 43 44 47 55 62 67 72 74 80 84 84 85 88 92 98 97 92 89 83 74 73 76 74 70 68 65 63 68 74 75 73 69 69 67 67 65 61 59 58 58 59 61 61 61 60 58 54
57 51 48 45 43 43 45 46 46 46 46 47 48 50 50 48 47 47 50 57 57 45 39 48 52 47 46 52 60 58 50 46 38 34 41 49 53 52 47 45 44 45 50 56 60 66 73 76 78 85 89 86 83 85 93 97 87 74 67 63 61 63 65 66 67 68 68 70 73 75 75 72 68 65 62 61 60 59 59 58 57 58 57 57 56 55 53 52
60 56 51 46 44 44 44 46 46 45 47 47 47 50 52 50 49 51 52 53 52 44 38 42 48 50 46 45 49 47 43 42 37 38 48 51 51 51 48 46 48 49 54 61 64 69 74 75 78 86 90 85 80 87 97 94 77 60 55 55 54 56 60 66 72 75 76 77 77 77 77 73 66 60 58 61 63 63 61 56 53 52 52 52 52 51 50 49
65 60 54 49 45 44 44 46 46 45 47 48 47 51 54 50 50 57 59 55 46 39 38 40 43 49 46 39 38 39 39 39 38 44 51 50 48 50 49 49 51 52 55 61 66 70 70 70 74 81 85 81 78 84 93 90 76 61 53 54 54 56 61 67 73 76 74 72 72 72 70 66 61 58 59 60 61 60 56 51 49 49 49 49 49 49 49 48
69 64 58 53 47 44 44 46 48 46 47 49 48 53 57 52 50 57 65 67 57 44 41 40 42 46 44 36 33 36 39 40 41 47 51 48 47 49 51 53 55 56 57 59 65 70 68 66 70 72 72 73 70 71 78 80 74 62 56 57 58 59 62 64 66 66 65 64 63 61 60 59 59 59 58 56 55 54 50 48 47 47 48 49 50 50 50 49
72 68 62 56 49 46 45 46 49 48 48 49 51 56 61 55 50 55 66 75 72 60 48 40 41 45 43 36 33 35 39 42 44 47 48 47 46 48 53 58 61 62 63 62 65 70 68 66 69 68 65 64 61 61 66 68 64 59 58 60 60 62 63 63 63 62 61 59 57 57 58 59 59 57 55 53 52 50 47 47 48 50 52 53 53 53 52 52
76 70 64 58 51 48 47 48 50 50 49 50 51 58 64 60 53 55 67 77 78 73 59 43 40 44 41 36 35 35 40 44 44 45 47 46 46 50 55 62 66 67 67 67 70 72 68 65 67 68 64 59 56 57 59 59 57 56 58 61 63 64 64 64 64 63 61 59 59 61 60 59 56 53 52 52 49 47 48 51 52 53 54 54 54 54 53 53
81 72 65 61 55 50 48 49 51 52 51 49 50 57 65 65 58 56 67 75 76 78 69 48 39 43 41 36 35 37 41 43 41 43 46 47 49 52 56 63 68 69 68 69 72 72 67 63 65 67 64 61 60 59 57 56 55 56 59 62 62 62 61 62 62 62 62 62 63 63 62 59 55 52 54 54 51 51 53 54 54 53 52 52 51 51 51 53
86 75 68 63 57 53 50 49 51 52 52 50 49 53 61 66 61 55 62 69 71 76 71 51 39 42 41 37 36 38 43 44 40 43 46 48 51 53 56 63 67 67 69 70 70 70 68 65 64 66 67 66 64 60 56 55 56 58 60 60 59 58 58 59 60 61 63 64 64 63 61 58 54 53 56 57 56 58 58 56 53 51 49 48 48 48 48 50
94 80 71 66 59 55 51 50 51 53 53 51 50 52 58 65 63 56 58 66 69 71 65 48 41 42 41 39 36 38 45 46 42 43 46 48 52 55 57 62 66 66 67 68 65 66 69 67 65 68 68 66 62 58 55 56 58 60 60 59 57 58 58 58 60 62 63 63 61 60 58 56 54 55 58 58 59 59 59 58 54 50 48 47 47 47 47 48
104 89 77 70 63 58 54 51 52 54 54 53 53 54 58 67 68 59 59 66 68 67 59 46 42 43 41 39 37 38 44 46 43 43 47 48 52 57 59 60 63 65 65 62 60 62 65 64 67 71 68 62 60 57 57 59 62 62 60 59 59 58 58 59 60 61 62 60 58 57 57 56 56 57 58 57 55 55 55 56 54 51 50 50 49 48 47 49
108 99 84 75 68 61 56 53 53 54 56 56 56 55 59 70 75 67 64 68 68 66 60 49 45 44 41 37 36 39 45 46 45 45 48 51 53 57 59 59 61 65 64 59 56 60 64 65 69 73 69 63 60 59 60 62 62 61 60 59 59 58 57 58 59 60 60 59 57 58 58 57 56 57 57 55 52 51 52 53 54 54 54 53 52 50 50 51
106 104 91 79 72 66 59 55 54 56 58 58 59 58 61 71 80 76 71 73 72 68 62 57 52 45 39 35 34 39 45 45 46 48 49 51 54 56 58 58 60 64 64 59 57 60 65 68 70 71 68 64 62 60 61 62 61 60 59 58 57 56 57 58 59 60 59 58 58 58 58 58 58 59 59 57 55 53 53 55 57 59 59 58 56 54 53 53
103 106 98 85 77 71 63 57 56 58 60 60 60 59 60 68 80 82 76 77 80 74 62 60 60 48 37 35 34 38 45 46 46 48 49 50 52 53 57 57 58 60 61 61 61 60 64 68 69 67 65 62 61 61 62 62 61 58 56 56 56 56 57 59 61 61 60 58 57 57 58 59 60 62 61 60 60 59 58 60 65 69 68 64 61 59 58 57
102 106 104 93 83 76 68 61 58 59 60 59 59 59 58 61 74 82 78 77 85 84 67 57 59 50 35 33 34 38 46 49 47 47 49 51 50 51 56 57 56 58 60 62 63 61 62 65 65 64 62 61 62 64 64 64 61 56 54 55 55 56 58 61 62 62 60 58 57 56 58 60 61 63 63 63 63 63 63 67 72 75 75 71 68 67 67 67
102 105 105 98 89 81 73 65 60 59 59 59 58 59 59 59 66 77 78 74 80 90 78 55 48 45 35 31 36 41 47 50 48 47 49 51 51 53 57 59 58 60 61 64 68 68 65 62 60 60 60 60 64 66 66 64 59 55 54 54 55 57 60 61 61 62 62 61 60 59 60 62 64 67 67 68 68 68 68 72 76 77 77 75 75 75 76 77
102 103 104 102 94 86 78 70 63 60 59 58 58 60 61 60 61 69 76 73 73 87 88 61 40 38 37 34 38 44 49 52 50 48 49 51 54 57 58 60 63 67 67 67 71 73 67 61 59 59 58 61 66 67 64 60 57 54 53 54 56 60 62 63 63 64 65 66 66 65 64 66 69 71 71 71 73 73 74 76 77 76 74 72 74 77 79 77
Wind_Speed
33 34 32 28 25 24 22 19 16 14 12 10 8 7 7 7 6 6 6 7 6 6 6 7 8 9 10 10 10 10 10 11 11 12 12 13 13 15 16 17 19 19 20 19 19 18 18 19 20 22 24 26 28 29 30 31 32 32 33 33 33 34 35 34 33 31 30 30 31 31 31 30 29 29 29 29 29 29 29 29 27 25 24 23 21 20 17 17
34 34 33 29 24 23 22 19 16 14 13 11 9 9 8 7 7 6 7 7 7 7 7 7 8 9 10 11 12 12 12 13 13 13 13 14 15 15 16 16 17 18 18 19 19 20 21 22 23 25 27 28 29 30 30 31 32 32 32 33 33 33 32 31 30 28 27 27 28 28 28 27 26 26 25 25 25 25 25 26 25 23 22 20 19 18 16 15
34 35 34 30 24 22 21 19 17 15 13 12 11 11 10 10 9 8 9 9 8 8 8 9 9 10 10 11 12 12 13 14 15 16 16 17 18 17 18 18 19 19 20 20 20 21 21 22 24 26 28 29 29 30 31 31 31 31 31 31 30 29 29 28 28 26 26 25 25 24 24 24 24 24 23 22 22 22 22 22 22 21 20 19 17 16 16 14
34 35 35 31 25 22 21 20 18 16 14 12 12 12 12 12 11 11 12 12 11 11 11 11 11 12 12 12 13 13 14 15 16 17 17 18 18 18 18 19 19 19 20 20 20 21 22 24 26 28 29 30 31 31 30 30 29 29 28 27 26 26 26 26 25 25 23 22 21 20 21 22 24 25 23 21 20 20 20 20 20 19 19 18 16 15 14 13
34 34 35 33 27 23 21 20 18 16 15 13 13 13 13 13 13 13 14 14 14 14 14 14 15 15 15 16 16 17 17 18 18 18 18 18 18 19 19 19 19 20 20 21 22 23 25 27 28 30 30 31 30 29 28 27 27 26 25 24 24 24 24 23 22 21 20 19 18 18 19 21 24 25 24 22 20 19 18 17 18 18 17 17 16 14 12 12
34 34 34 34 29 23 21 20 18 17 16 15 14 15 15 15 14 15 15 15 16 16 16 17 18 18 19 19 19 20 21 21 21 21 21 21 21 21 21 21 22 22 22 23 24 25 27 29 30 30 29 28 27 26 25 25 25 23 23 23 23 22 20 18 17 17 17 17 18 18 18 20 21 21 19 17 16 17 16 15 14 15 16 16 15 13 11 12
34 34 34 34 30 24 21 20 19 18 17 16 16 17 17 17 16 17 17 16 16 17 17 17 18 19 20 21 21 22 23 23 23 24 24 23 23 22 23 23 23 23 24 25 26 28 29 29 27 26 25 24 25 24 24 24 23 22 22 22 22 19 16 14 13 14 16 17 18 18 17 18 18 16 14 13 12 12 13 12 11 11 13 14 13 12 12 12
34 34 34 34 31 25 21 20 19 18 17 17 17 18 18 18 18 18 17 17 17 16 17 17 18 19 19 20 21 22 23 23 24 24 24 23 23 22 22 22 22 23 24 25 27 28 27 25 24 23 23 23 23 22 22 22 21 21 21 21 19 16 13 12 12 13 16 17 18 17 15 16 15 12 11 11 10 9 9 8 7 7 8 11 13 12 12 12
35 34 33 33 32 27 21 19 19 18 17 16 17 17 18 18 18 17 17 17 17 17 17 17 18 18 19 20 21 21 22 22 23 23 22 22 21 22 22 21 22 22 23 25 26 25 23 22 22 23 22 21 20 20 21 21 20 21 20 18 17 14 13 11 12 13 14 14 14 14 14 14 11 9 9 9 7 6 6 8 7 3 4 7 10 11 10 10
35 33 33 33 33 28 22 19 19 18 16 16 16 16 17 17 17 17 17 18 17 17 17 17 18 18 19 19 20 20 21 21 21 21 20 20 20 21 20 20 21 22 23 24 23 21 21 21 22 21 20 19 18 19 20 20 20 19 18 17 16 15 14 11 10 11 11 11 11 12 12 11 8 6 7 7 4 4 5 8 10 7 1 4 7 8 9 9
35 33 33 32 32 30 24 19 19 18 16 15 15 16 16 16 17 17 18 18 17 16 16 17 18 18 18 19 19 19 19 19 19 19 19 19 20 20 20 20 21 22 23 22 20 19 19 20 20 19 18 17 18 18 19 19 18 17 17 16 15 14 13 11 10 10 11 10 11 12 11 8 5 3 5 4 3 3 5 7 10 10 5 1 2 5 6 7
36 34 32 32 32 31 26 20 19 18 16 15 15 16 16 16 17 17 17 16 15 15 16 17 18 18 19 19 20 20 19 19 20 20 20 21 21 20 20 21 22 23 21 20 18 18 18 18 17 18 17 17 17 18 19 18 16 15 15 14 13 13 12 12 12 12 11 10 10 10 9 6 4 2 2 3 2 2 3 4 7 8 7 5 2 2 4 5
36 34 32 32 32 32 28 22 19 18 16 15 16 16 16 16 16 15 15 15 15 15 16 17 18 19 19 20 20 20 20 20 21 22 22 22 22 21 21 22 22 21 19 18 18 18 17 16 16 17 16 16 16 17 17 14 13 13 13 13 14 14 14 14 12 11 9 7 7 6 5 4 3 1 2 2 2 2 2 3 5 5 5 5 4 4 4 4
36 34 32 31 31 32 29 24 19 17 16 15 16 16 16 16 15 14 14 14 15 15 16 17 18 19 19 20 20 19 19 20 21 22 23 22 21 21 22 22 20 19 17 17 18 18 17 16 16 15 15 15 15 15 13 11 11 11 12 13 14 14 13 12 10 8 6 3 2 3 3 3 2 1 2 2 2 2 2 4 5 4 3 4 5 5 5 4
36 34 32 31 31 31 30 26 20 18 16 16 16 17 17 16 14 14 14 15 15 16 16 17 18 18 18 19 19 18 18 20 21 22 21 20 20 22 22 20 18 17 17 17 18 17 16 15 14 14 14 13 12 11 9 9 11 11 12 12 12 12 13 14 12 10 7 4 1 0 1 1 1 1 1 2 2 2 1 3 6 4 2 3 4 5 5 4
35 34 32 31 31 31 31 28 22 19 17 17 17 18 17 15 15 15 15 15 15 15 16 16 17 17 18 18 18 18 18 19 19 19 18 18 20 21 19 18 17 17 17 17 17 16 15 13 12 12 12 11 9 8 7 8 10 10 11 10 11 13 16 17 15 13 11 6 3 1 1 2 2 1 1 2 1 2 1 3 5 5 3 3 4 4 4 4
35 34 32 31 30 31 31 29 24 20 18 17 18 18 17 15 15 15 15 14 15 15 15 16 17 18 17 16 17 17 16 16 16 16 16 17 18 17 17 17 17 16 16 16 16 15 12 10 10 9 9 8 7 5 6 7 8 9 10 11 13 16 18 19 19 18 17 12 5 3 3 3 3 3 3 4 2 1 2 3 5 5 4 2 3 4 4 4
34 34 32 31 30 30 31 30 25 20 18 17 18 18 16 15 15 15 14 14 14 15 16 16 16 17 16 15 14 13 13 13 14 14 14 14 14 14 14 15 15 14 14 14 14 12 9 6 7 7 7 5 3 3 5 7 8 10 12 13 15 16 18 20 21 20 20 16 10 6 6 5 4 5 6 6 5 3 2 4 5 5 4 2 2 4 4 5
34 34 32 30 30 30 31 30 25 20 18 18 19 18 16 15 15 15 14 13 13 14 15 15 15 15 13 11 10 11 11 12 12 12 12 13 12 12 13 13 12 12 11 11 10 9 6 3 3 5 5 3 1 2 4 5 8 12 13 13 15 16 17 19 19 19 18 15 13 12 9 7 7 8 9 8 7 5 4 4 4 3 3 3 2 2 3 4
33 33 32 31 30 29 31 30 25 20 19 18 19 19 17 15 16 16 15 14 13 13 13 14 13 12 10 9 9 10 11 10 10 11 12 13 12 13 13 12 10 8 7 7 7 6 3 2 2 2 3 3 1 2 2 5 10 11 12 14 16 16 17 18 18 18 16 12 12 13 10 9 10 10 11 9 8 7 5 4 3 2 2 4 4 3 3 3
32 33 32 31 29 29 30 30 26 22 20 19 19 19 17 15 16 16 15 14 13 12 12 12 11 9 8 8 9 11 12 12 11 11 12 12 12 13 12 10 8 6 5 5 5 3 1 1 2 4 2 1 1 1 2 7 10 10 11 14 16 16 16 16 16 16 15 11 9 11 10 10 12 13 12 10 8 6 5 4 3 1 2 4 5 5 4 3
32 32 32 31 30 29 29 30 28 23 20 19 19 19 17 15 16 16 15 14 14 12 11 11 9 7 6 6 8 10 11 11 10 9 10 11 12 10 8 7 5 5 6 6 5 3 1 2 3 5 5 2 2 2 5 9 10 11 13 15 17 17 16 15 15 16 14 12 10 10 9 11 14 14 12 10 8 6 5 4 3 2 2 4 4 5 4 4
31 31 31 31 30 29 29 30 28 23 20 19 19 19 17 15 16 16 16 14 13 12 11 9 7 6 5 4 5 7 9 9 9 8 9 10 10 8 7 7 7 8 9 9 7 5 4 3 4 6 6 5 4 4 7 11 12 15 16 17 18 17 15 16 17 17 15 14 15 14 11 13 15 14 13 11 10 9 7 5 3 2 3 4 5 5 5 5
30 31 31 31 30 29 29 30 28 23 20 19 19 19 17 15 15 16 15 13 12 12 10 8 5 5 5 3 6 8 9 9 9 10 11 11 11 9 9 8 8 10 11 11 9 7 5 4 6 7 7 6 5 6 9 13 15 16 16 17 18 16 16 18 19 21 19 19 20 18 15 14 15 14 14 13 12 11 8 5 4 3 3 3 4 4 5 5
30 30 31 31 30 29 29 29 27 23 20 19 19 19 17 15 15 14 14 12 11 11 9 7 5 3 3 3 6 8 9 8 9 12 13 13 12 11 10 9 10 10 10 11 10 8 8 8 8 8 7 7 7 8 12 15 16 16 15 16 16 16 18 19 22 24 23 24 25 23 20 17 17 16 16 16 15 13 11 9 8 8 7 6 6 5 5 5
30 29 30 31 30 29 28 29 28 23 20 19 19 18 16 15 14 13 13 11 10 11 8 6 5 2 2 3 5 6 7 8 8 10 12 12 12 11 11 11 11 11 11 11 11 10 10 9 7 7 7 9 10 11 14 16 16 14 14 15 15 17 20 21 23 25 25 27 27 27 26 22 21 21 21 20 19 16 15 15 14 14 13 12 11 10 9 9
31 29 30 30 30 29 28 28 28 23 19 19 20 18 15 15 14 12 11 10 10 9 5 4 4 1 3 5 6 5 7 7 7 8 10 12 12 13 13 12 11 11 12 12 11 11 11 9 7 7 8 12 13 14 16 16 14 11 11 15 17 19 22 22 23 24 25 26 27 27 27 25 24 25 24 23 21 20 20 19 19 18 18 17 16 16 15 15
31 30 30 30 30 29 28 28 27 23 20 20 20 18 15 14 13 11 9 9 9 7 3 4 4 1 4 5 7 8 8 6 6 6 7 9 12 14 14 13 13 12 12 12 11 11 10 9 9 9 11 14 15 16 16 14 12 9 11 17 20 21 22 22 23 23 24 26 26 27 27 26 26 25 24 23 23 23 23 22 22 21 21 20 20 20 20 20
31 30 30 30 29 29 28 28 27 23 20 20 19 18 15 14 12 9 8 7 6 5 3 2 3 2 4 6 6 8 10 8 8 6 4 7 10 13 15 14 15 13 11 11 11 11 9 9 11 12 13 15 16 17 15 13 12 10 14 20 22 22 22 23 23 23 25 27 27 28 28 27 26 24 24 24 25 26 25 25 25 25 25 25 24 24 24 24
30 30 30 30 29 29 28 28 26 23 21 19 19 17 15 14 11 9 7 5 3 3 2 1 4 5 7 8 6 7 9 8 8 7 7 8 9 11 15 16 15 13 11 11 11 10 9 9 12 14 15 15 16 18 17 16 14 12 17 21 22 23 23 23 24 23 26 28 28 28 28 27 25 25 26 27 27 27 26 26 27 28 28 27 27 26 26 26
30 30 30 30 29 28 28 28 26 24 21 19 18 17 15 14 11 8 7 5 4 3 1 2 5 8 9 10 9 9 9 7 6 7 10 12 10 11 13 14 14 12 12 12 11 12 12 12 12 14 16 16 17 18 19 18 16 15 19 21 21 22 22 22 22 22 24 27 28 29 29 28 26 26 27 28 28 27 26 27 28 29 28 27 26 26 25 25
29 30 30 30 29 28 27 27 26 24 21 18 17 17 15 14 11 9 8 6 5 4 2 4 7 10 10 11 13 13 11 7 6 8 12 14 13 11 11 11 12 12 12 13 13 14 14 14 14 14 16 16 16 18 19 17 17 18 20 21 21 21 21 21 20 22 25 28 28 29 30 29 27 26 27 27 27 27 26 27 28 28 28 26 25 24 24 23
29 29 30 30 29 28 27 27 26 24 21 18 17 17 15 14 11 8 7 5 5 5 3 5 9 12 12 13 14 13 12 8 8 10 13 15 15 12 9 10 13 14 15 16 16 17 17 17 17 17 17 17 17 18 19 19 21 21 20 20 22 22 22 22 23 25 27 28 28 28 29 29 27 26 26 26 27 26 26 26 27 27 26 24 23 22 22 21
28 28 29 29 29 28 27 26 26 25 22 18 17 16 14 12 10 7 6 5 5 5 3 5 8 11 13 14 13 12 11 9 10 13 14 14 14 12 10 13 16 18 18 20 21 21 21 21 21 22 22 21 20 21 21 22 22 22 21 22 24 25 25 25 26 27 28 28 28 28 28 28 26 25 26 26 26 25 25 24 24 25 25 22 21 21 20 20
27 28 28 29 29 28 26 26 26 25 22 18 17 16 14 12 9 7 5 5 5 4 3 5 8 11 14 15 13 12 11 10 12 15 16 14 13 12 13 17 19 21 22 24 26 25 25 25 26 26 25 24 24 25 25 24 24 23 24 25 25 26 26 26 27 28 28 28 28 28 27 27 25 25 26 25 24 23 23 21 22 23 23 21 21 21 20 20
26 27 27 28 28 28 26 25 25 24 22 19 17 15 13 11 9 7 6 5 5 4 4 6 9 11 14 15 14 13 12 12 14 17 17 16 14 14 17 20 22 24 26 28 29 29 29 29 29 29 28 28 28 28 28 27 26 26 26 26 26 26 27 27 27 28 28 28 28 28 27 26 25 25 24 24 23 21 21 20 21 23 22 21 21 21 21 22
26 26 27 27 28 27 26 25 25 24 23 20 17 15 12 11 9 6 5 5 5 5 6 8 9 11 13 16 16 15 14 14 15 17 17 16 17 18 20 22 24 27 29 30 31 31 30 30 30 31 32 32 31 30 29 29 28 27 27 26 26 27 27 27 27 27 27 27 27 27 26 25 24 23 23 22 21 20 20 20 21 23 23 22 22 23 23 24
25 25 26 27 27 27 26 25 24 24 23 20 17 14 11 11 9 6 5 5 5 5 6 8 10 11 13 16 17 17 16 16 16 16 16 18 20 21 21 23 26 29 31 31 31 31 30 30 32 33 34 33 32 31 30 29 28 27 26 26 27 27 27 26 26 26 26 26 25 25 24 22 22 21 22 22 21 20 20 21 22 24 24 24 24 24 24 24
25 25 26 26 26 26 26 25 24 23 23 21 18 15 11 10 9 6 4 5 5 5 6 8 10 11 13 16 18 18 18 17 17 17 18 20 22 22 22 24 27 29 31 31 30 29 29 31 33 34 34 33 32 31 30 29 27 26 25 26 26 26 26 25 25 26 26 25 24 23 22 21 21 21 21 21 21 21 21 21 23 24 24 24 24 24 24 25
26 25 25 25 25 26 25 24 24 23 22 21 19 15 11 10 9 8 5 4 5 5 6 8 10 12 13 15 18 19 18 17 18 19 20 22 23 23 24 25 26 27 28 30 30 30 30 31 32 33 33 33 32 31 30 28 27 25 25 25 26 26 26 26 26 26 25 24 23 22 21 21 20 20 21 21 22 22 22 22 23 23 24 24 25 25 25 25
26 25 25 25 25 25 24 23 23 23 22 21 18 14 12 11 10 8 6 3 4 6 6 8 10 12 14 15 17 19 19 18 20 22 23 23 24 24 25 26 26 27 28 29 31 31 31 31 31 31 32 32 32 31 30 28 27 26 25 25 26 26 26 26 25 24 23 22 22 21 21 20 20 20 21 21 21 21 22 22 22 23 23 24 24 24 25 26
26 25 25 24 24 24 23 23 22 22 21 20 17 13 11 11 10 9 6 4 4 6 7 8 10 13 14 16 17 18 18 20 23 24 24 24 24 25 26 26 27 28 30 32 33 32 31 31 31 31 31 31 30 30 29 28 27 27 26 26 26 26 25 24 23 22 21 20 20 19 19 19 19 20 20 20 20 20 21 21 21 22 22 23 23 24 25 26
27 25 24 24 24 24 23 22 21 21 21 20 17 13 11 12 12 9 6 5 5 7 8 9 12 14 15 17 18 18 18 20 24 26 25 25 25 26 26 27 28 30 32 33 33 33 31 31 31 31 30 30 29 28 28 28 28 28 27 27 26 26 24 23 21 20 19 18 18 17 17 17 18 19 19 18 18 18 18 18 19 20 20 21 22 23 24 26
27 26 24 24 24 23 23 21 21 20 20 20 18 15 12 12 13 10 7 6 6 7 9 11 13 15 16 18 19 19 18 20 24 26 26 27 26 26 26 27 28 30 32 33 33 32 32 31 31 30 29 28 28 27 28 28 28 28 27 26 26 24 23 21 20 18 17 17 16 16 16 16 17 17 17 17 16 16 16 16 16 17 18 19 20 21 22 24
28 26 24 24 23 23 23 21 20 20 20 20 19 16 13 13 14 12 9 6 6 8 10 13 14 16 18 20 21 20 20 21 24 26 27 28 28 27 27 28 30 31 32 33 32 32 32 31 30 28 28 28 28 28 28 28 27 27 26 25 23 21 20 19 18 17 17 16 16 16 15 15 15 15 15 14 13 13 13 13 13 14 15 17 18 19 20 22
28 26 25 24 24 23 23 22 20 20 20 19 18 16 14 13 14 14 11 7 6 10 12 14 16 18 20 22 22 22 22 23 25 27 28 29 29 28 28 29 31 32 33 33 32 32 31 31 30 28 28 28 28 27 27 27 26 25 24 22 21 19 18 17 17 16 16 16 16 15 14 14 13 12 11 10 10 10 10 10 11 12 14 15 17 18 20 21
29 26 25 25 24 24 23 22 20 20 19 18 18 16 13 12 14 15 12 9 8 11 14 16 17 20 23 24 24 23 23 24 26 27 29 30 30 30 30 30 32 33 33 33 32 31 31 30 30 29 28 28 27 27 26 26 25 23 22 21 19 18 17 17 17 16 15 15 15 14 13 12 11 10 8 7 7 8 8 9 11 13 15 16 18 19 21 22
30 27 26 26 25 24 23 22 21 20 19 18 17 16 13 12 14 15 13 10 9 12 15 16 18 21 24 25 24 24 24 26 27 29 30 31 32 31 31 32 33 33 34 33 32 31 31 30 30 29 28 28 27 26 26 25 24 23 21 20 18 18 17 16 15 15 14 14 13 12 11 9 8 7 5 4 5 7 9 10 12 14 16 18 20 21 23 24
31 28 27 27 26 24 23 22 21 20 19 19 18 17 15 13 14 16 15 12 11 13 15 16 19 23 26 26 25 25 25 27 28 30 31 32 32 33 33 33 34 34 33 33 31 31 30 29 29 29 28 28 27 26 25 24 22 22 21 19 18 18 17 15 14 13 13 12 12 11 10 8 6 4 3 3 4 7 9 11 13 15 17 19 21 23 24 25
32 30 28 27 27 25 23 23 22 21 20 20 19 18 17 15 15 17 17 15 14 13 14 16 20 24 27 27 25 25 26 28 30 31 32 32 32 32 33 34 34 34 33 32 31 31 30 29 29 29 28 27 26 24 23 22 21 21 20 19 19 18 17 16 15 13 12 11 11 10 8 6 4 2 0 2 4 7 10 12 14 16 18 20 22 24 26 27
33 31 30 28 28 26 24 23 23 23 21 21 21 20 19 17 16 18 19 18 16 15 15 16 21 25 27 26 25 25 27 29 30 31 32 32 32 32 33 35 35 34 33 32 31 30 30 30 29 28 27 26 25 23 22 22 21 20 20 19 18 17 17 16 15 13 12 11 10 9 7 5 4 2 2 3 5 8 10 13 15 17 20 21 23 25 27 28
34 32 31 29 29 27 25 24 24 24 23 22 22 21 20 19 18 19 20 20 18 18 18 19 22 25 26 26 25 25 27 29 30 31 31 32 32 32 34 35 35 35 34 33 32 30 29 29 28 28 27 25 23 22 22 21 21 21 20 19 18 17 16 15 14 13 12 11 11 10 8 6 5 4 4 5 6 8 11 14 16 18 20 22 24 26 27 29
Wind_Direction
348 349 348 346 343 339 333 327 323 317 312 311 313 310 307 308 312 315 317 313 309 301 289 280 275 272 272 272 274 275 275 274 272 270 268 265 262 260 262 264 266 270 272 275 276 276 276 277 276 276 275 274 276 279 283 287 290 293 293 292 290 290 290 290 290 290 290 289 286 283 280 278 276 275 274 274 274 275 275 277 278 276 271 269 269 268 268 268
347 349 349 346 343 339 333 326 319 314 307 302 302 299 297 297 298 302 303 304 303 299 296 291 286 281 276 273 271 268 268 269 269 268 267 265 264 265 267 268 269 271 273 275 276 277 277 278 277 275 274 275 279 283 287 291 293 294 293 291 291 292 292 291 290 290 287 283 280 279 278 278 278 279 279 280 279 277 275 274 275 275 270 266 268 270 271 275
347 348 349 346 342 338 332 325 317 312 306 298 294 291 289 288 288 289 290 290 290 290 290 290 289 287 283 279 275 272 269 267 266 265 264 265 266 268 270 270 271 273 275 276 278 278 277 276 275 274 277 281 285 289 292 294 294 293 292 292 294 295 294 293 291 288 284 281 280 281 282 283 283 284 285 286 285 282 279 274 271 273 270 264 265 269 272 273
346 347 348 346 342 337 332 325 317 311 306 300 294 290 288 288 289 288 287 286 285 285 285 283 281 280 278 276 274 272 271 268 267 267 266 267 269 271 273 273 274 274 275 276 277 276 275 275 275 277 281 286 290 293 294 294 293 292 293 296 297 295 294 292 290 288 286 284 284 286 288 289 289 289 290 289 286 285 282 277 272 272 270 262 260 265 268 263
346 347 348 346 342 337 332 325 317 311 306 300 294 291 290 290 290 289 286 285 285 284 282 280 278 276 274 273 272 271 272 271 271 271 270 271 272 273 274 275 275 275 275 275 275 274 274 274 276 280 286 290 293 294 294 292 291 293 296 297 296 294 293 292 292 290 287 286 286 290 292 292 294 297 298 295 290 286 284 279 274 272 269 261 258 262 263 253
346 346 347 347 343 336 332 326 317 310 304 299 293 291 292 292 292 288 286 285 284 281 279 277 276 274 273 272 272 272 273 273 273 272 272 272 272 273 274 275 276 276 275 274 273 273 272 274 279 286 291 293 293 293 293 292 294 297 298 297 295 294 293 293 293 291 287 286 288 290 291 294 302 307 309 307 299 292 288 284 276 268 264 258 254 255 253 248
345 346 346 347 344 337 332 326 318 309 302 298 293 292 293 294 293 290 288 286 284 281 278 276 274 273 271 271 270 270 271 271 271 271 272 272 273 274 274 274 275 275 274 273 273 271 273 279 287 291 291 290 291 294 296 297 299 300 299 296 294 293 294 295 295 293 288 286 288 290 293 302 313 321 326 327 321 311 303 296 285 269 257 248 244 244 245 247
344 345 346 347 345 339 332 327 320 309 301 298 294 293 295 295 294 291 289 287 284 282 279 277 275 273 271 269 268 268 268 268 268 269 271 272 273 273 272 273 273 273 273 273 272 274 280 287 290 288 287 290 295 299 300 301 302 301 298 295 294 295 296 295 292 289 287 284 284 285 292 305 316 329 344 347 346 341 336 329 313 283 258 240 236 239 244 249
343 344 345 346 345 341 333 328 322 313 304 299 297 296 297 296 294 292 290 287 285 283 281 278 275 272 270 268 267 267 267 267 268 270 271 272 272 272 272 272 272 272 272 271 273 280 289 291 288 288 291 296 301 302 302 302 301 299 299 300 301 303 302 297 288 287 287 282 278 280 293 308 317 338 1 6 7 4 8 15 15 346 261 234 232 238 247 258
342 343 343 344 345 342 334 328 323 316 310 304 301 298 296 294 293 292 291 289 287 285 282 278 275 273 271 270 269 268 268 268 269 270 270 270 270 269 269 269 269 269 269 271 279 288 292 290 289 292 296 299 301 301 300 300 301 303 307 310 311 312 313 309 301 301 301 291 283 288 303 312 314 347 12 10 12 28 37 38 41 48 65 221 227 237 253 265
342 342 342 343 344 342 335 328 324 320 315 311 306 301 298 296 294 293 291 289 288 286 282 279 277 276 274 273 271 270 269 269 268 267 267 266 264 264 265 266 265 266 268 276 284 288 288 288 291 294 296 299 300 299 299 301 307 313 317 319 317 317 321 322 318 316 312 304 296 299 310 310 304 349 28 18 10 33 46 44 43 47 52 71 218 244 263 269
341 340 341 341 343 342 336 328 324 321 319 316 311 306 302 299 296 293 291 289 288 286 283 281 278 276 275 273 271 270 270 270 269 267 264 262 261 262 262 263 263 266 273 280 283 282 282 285 289 292 296 300 300 299 301 308 318 323 324 325 323 323 326 326 320 312 304 299 296 298 306 299 287 334 42 36 17 16 33 49 47 44 43 44 34 314 296 289
340 340 339 340 341 342 338 330 324 322 320 317 312 308 304 300 296 293 291 290 289 287 284 281 278 275 273 271 270 269 270 269 267 266 263 262 263 264 263 263 266 272 278 279 277 276 278 282 285 291 297 300 301 302 306 317 328 329 328 328 326 326 328 327 322 315 303 291 288 291 294 282 272 315 26 33 24 17 47 83 77 54 39 32 16 346 319 305
340 339 338 338 339 341 339 331 324 321 319 315 312 310 306 301 297 294 293 293 292 289 286 282 278 275 273 270 268 267 266 264 262 261 261 263 265 263 263 266 270 276 277 274 273 274 276 279 284 290 296 301 306 307 311 325 333 332 333 331 329 330 338 347 354 354 345 322 302 294 289 282 271 327 27 26 14 21 93 109 99 80 33 7 348 336 326 317
339 338 337 337 338 340 339 333 324 319 316 314 313 313 310 305 301 300 299 297 294 290 287 282 279 275 272 269 267 265 262 259 257 259 261 264 263 262 265 270 272 273 271 269 269 271 272 276 283 290 299 310 313 310 318 332 333 333 336 339 340 345 2 19 26 28 27 37 53 327 281 307 2 11 39 34 9 8 88 110 90 78 40 351 328 322 321 318
338 338 337 336 337 339 340 335 325 318 316 316 315 315 313 309 307 306 303 300 296 292 287 282 279 277 274 271 268 263 260 260 261 263 265 264 262 264 267 269 267 265 265 265 265 266 269 275 283 293 306 313 310 315 333 335 328 333 346 357 1 5 13 23 33 37 41 53 85 124 135 81 57 48 65 53 28 12 35 97 79 63 45 352 316 305 303 301
337 337 336 335 336 338 340 337 328 320 318 316 315 316 315 312 310 308 305 302 298 294 289 285 282 280 277 272 268 266 268 269 268 265 262 261 262 265 267 264 262 261 259 259 261 262 265 274 287 301 310 307 307 327 336 328 334 352 11 19 17 15 13 19 27 31 40 47 63 116 121 106 84 75 87 79 78 55 37 82 85 65 47 1 310 297 292 290
336 337 336 335 336 338 340 339 331 321 316 312 312 316 316 313 312 310 306 302 300 296 292 288 284 281 278 274 270 269 268 266 262 259 257 258 261 264 262 259 258 257 257 256 256 257 260 276 294 304 309 305 313 335 331 335 2 21 29 29 24 20 15 20 24 26 37 42 49 82 98 105 100 90 91 85 90 106 64 71 84 69 45 13 320 303 302 299
336 336 336 335 335 338 341 340 332 319 312 310 312 317 317 315 314 311 306 303 302 300 295 292 288 282 277 270 262 253 248 249 251 252 251 251 252 253 251 250 250 250 253 255 252 251 248 254 278 295 307 305 317 337 337 359 30 39 35 30 29 26 22 26 27 30 39 41 49 69 82 99 103 97 96 91 94 106 94 78 81 70 29 0 346 315 316 322
336 337 336 335 336 338 341 340 332 319 312 311 315 319 319 317 316 312 308 307 310 307 299 296 293 283 270 256 247 240 234 232 235 242 246 249 248 243 240 238 235 235 243 246 241 241 239 218 198 234 290 291 335 340 353 50 54 48 37 31 34 32 30 32 33 36 44 45 51 65 78 102 110 106 102 97 97 101 101 95 89 72 357 341 340 320 305 317
336 337 336 335 336 338 340 340 334 322 314 312 316 320 319 318 316 313 311 314 317 313 306 302 296 283 263 243 236 232 225 217 216 228 239 245 244 238 235 229 215 205 209 213 206 202 230 234 164 156 200 269 17 355 64 69 65 57 42 38 39 37 38 41 41 43 50 54 63 68 75 99 110 106 99 93 91 89 88 91 89 65 338 326 331 328 311 285
336 336 336 336 336 338 340 340 336 326 317 314 317 320 320 320 317 315 316 320 320 317 316 311 304 298 281 250 238 232 224 212 201 213 229 234 233 230 227 214 184 168 177 176 157 139 169 222 154 136 142 125 57 51 77 72 68 62 49 45 43 43 49 52 50 51 57 68 83 84 84 99 106 103 96 90 86 80 72 70 65 45 346 321 322 330 329 308
337 336 336 336 336 338 340 341 339 329 319 315 317 320 321 321 319 317 319 322 323 323 325 322 322 325 308 259 226 217 209 194 181 192 214 221 222 209 186 173 166 170 169 154 140 147 176 185 131 117 117 102 73 76 85 75 64 56 50 48 46 48 57 60 59 62 69 81 90 93 97 101 102 103 100 96 89 79 68 56 40 10 341 324 323 327 331 330
337 336 335 336 337 339 341 342 340 331 321 317 318 321 322 322 321 320 320 322 327 330 332 337 347 343 313 244 198 193 183 172 171 181 196 204 206 188 165 167 179 176 165 148 145 155 147 112 93 88 83 78 81 88 86 74 60 50 47 50 51 55 63 68 71 74 78 86 92 97 103 103 102 103 102 97 88 77 67 60 50 30 15 0 349 343 338 333
338 336 335 336 337 339 341 342 339 333 324 318 318 322 322 323 321 321 321 323 332 336 339 346 358 0 312 229 187 183 168 164 177 183 192 200 198 183 167 175 184 174 162 147 136 128 108 91 82 82 79 82 95 95 83 73 60 47 45 54 61 66 71 76 81 82 83 85 89 94 97 98 98 97 93 88 82 75 71 67 62 57 49 38 28 18 6 357
339 336 335 336 338 340 341 341 340 335 326 319 320 323 323 323 322 324 325 330 343 344 349 356 0 7 278 197 167 168 155 162 189 190 195 201 194 180 170 175 177 167 149 125 112 105 95 87 84 86 90 99 104 96 82 74 62 47 48 65 76 80 81 83 85 86 85 85 85 87 87 86 87 86 84 82 80 80 79 76 72 68 65 62 62 63 64 64
339 337 335 336 338 340 341 341 340 336 326 320 323 325 324 323 323 327 334 347 355 345 352 13 16 34 218 186 154 148 146 159 184 191 200 204 191 175 167 168 167 153 127 111 111 110 99 93 93 93 103 111 111 100 85 75 65 51 60 80 87 88 89 89 88 87 85 85 85 84 83 82 81 82 82 82 83 82 81 80 78 75 73 72 72 73 73 72
339 338 335 335 337 340 340 340 341 336 326 323 325 325 323 321 321 329 345 1 355 333 338 37 49 109 202 181 149 135 131 143 163 181 205 203 185 168 160 158 153 137 121 121 125 114 104 104 108 114 120 121 117 104 90 80 75 69 83 95 95 92 93 93 90 86 84 86 86 86 86 84 82 82 83 83 81 79 78 78 78 76 73 71 69 70 70 71
338 338 336 335 337 339 340 341 341 336 327 325 326 324 321 319 319 332 352 2 349 319 316 63 96 148 168 146 139 138 134 140 154 159 170 175 174 162 153 150 142 133 133 138 129 116 113 118 123 128 128 128 124 113 105 100 98 98 101 102 100 97 96 95 92 89 86 87 88 88 88 85 82 81 81 80 78 76 75 75 75 74 72 70 68 68 68 68
337 338 337 336 337 338 340 341 341 337 330 327 327 323 320 316 318 335 350 352 326 287 294 109 128 144 146 129 125 143 139 142 154 151 146 154 164 159 154 151 142 143 152 145 132 128 129 134 136 132 128 133 131 122 120 118 116 118 111 104 101 101 101 97 95 94 91 90 90 89 86 82 80 80 80 79 78 77 76 76 75 74 72 70 68 67 66 65
336 337 337 336 337 337 339 340 340 337 332 330 327 322 318 315 320 338 344 336 298 272 258 170 143 143 149 136 126 130 124 130 154 160 158 151 153 165 165 154 146 153 157 144 138 138 138 142 139 127 126 133 132 124 121 122 128 130 117 107 103 103 104 101 99 99 96 92 90 88 86 83 81 81 81 80 80 80 79 77 76 75 73 71 69 66 64 63
333 336 336 336 337 337 338 339 339 337 333 332 327 322 318 314 322 339 339 330 295 271 218 174 155 147 152 138 127 124 119 134 167 168 160 148 147 170 171 150 148 154 148 139 137 138 139 140 130 120 124 129 128 123 122 128 137 133 120 111 108 107 107 105 105 103 97 92 87 86 86 85 83 83 82 82 82 82 80 78 77 76 74 71 68 66 63 61
330 334 335 335 336 336 338 338 338 336 334 332 326 322 319 316 321 338 337 326 287 263 215 174 167 157 149 134 124 124 126 148 173 162 157 150 150 165 168 152 150 144 136 132 131 133 134 132 126 124 126 126 126 126 130 137 138 130 122 117 114 113 111 111 109 104 97 92 88 87 87 86 86 85 84 84 84 83 80 77 76 76 74 70 67 65 62 60
326 331 333 333 334 336 337 337 336 335 334 330 325 323 321 317 322 335 333 316 285 264 211 183 186 169 148 133 128 130 135 156 170 158 156 155 153 160 165 157 145 134 131 129 127 127 128 128 129 129 128 128 130 131 135 138 135 129 125 122 119 117 115 112 107 102 96 94 92 91 89 89 89 89 88 86 84 81 78 76 75 75 74 70 67 63 59 54
322 327 331 331 332 335 335 335 334 334 334 329 326 326 323 318 320 329 323 304 285 262 200 189 201 178 151 139 137 141 145 158 167 161 156 156 157 160 161 153 139 131 130 128 125 125 126 129 131 129 128 130 132 133 134 135 133 131 127 123 121 118 115 111 106 101 97 95 94 93 91 91 91 91 89 86 83 80 79 77 75 74 72 68 63 59 53 48
318 324 327 327 330 333 334 333 332 333 333 328 325 327 324 316 317 329 326 302 282 257 202 189 199 185 160 146 143 146 150 157 168 165 158 156 158 160 156 147 137 132 131 128 127 127 129 131 130 128 129 132 133 134 134 134 133 129 125 122 120 118 115 110 106 102 99 97 96 95 94 94 93 91 89 87 84 83 81 77 73 70 67 63 59 55 51 48
314 320 323 324 327 330 331 331 330 331 332 328 325 327 324 312 309 329 336 309 281 250 211 191 192 188 168 151 147 151 152 159 169 164 156 157 157 158 155 145 137 135 133 131 131 132 134 134 131 129 130 132 133 133 133 134 132 127 123 121 118 116 113 110 107 104 101 99 99 98 97 96 95 93 91 89 86 83 78 73 69 68 67 65 62 59 55 52
311 316 318 320 324 326 329 330 328 329 331 327 324 326 323 308 304 319 341 322 293 251 221 200 186 183 172 157 153 155 154 161 169 160 157 161 157 155 154 145 140 140 137 136 137 137 139 137 134 133 133 134 134 133 134 134 131 127 123 120 118 115 113 111 109 107 104 103 101 100 99 98 98 97 95 92 88 81 75 71 70 70 69 67 64 60 56 52
307 311 314 317 320 323 326 328 327 327 329 326 324 324 319 306 300 306 329 333 309 264 229 209 190 180 177 167 158 156 156 161 167 160 160 163 157 153 153 147 144 144 142 142 142 142 143 141 139 139 138 137 136 135 136 135 132 128 124 121 118 117 116 114 113 111 108 106 105 104 103 103 102 99 96 92 88 84 78 74 71 70 68 66 63 59 55 52
303 307 310 313 316 320 324 326 325 325 327 326 324 322 313 300 293 297 309 330 316 280 238 215 198 184 181 175 163 158 158 163 166 162 161 162 156 154 152 149 147 148 148 147 145 144 145 145 144 144 143 140 139 138 138 136 134 131 127 123 121 119 119 117 116 113 110 109 109 109 108 108 105 100 95 91 88 85 81 76 72 70 67 64 61 58 54 51
299 302 306 309 313 317 320 323 324 323 323 325 325 320 308 295 287 289 294 308 308 284 250 218 201 188 182 178 170 162 160 166 168 162 160 160 156 154 152 150 149 150 150 149 146 146 148 147 146 146 144 143 141 140 139 138 137 134 130 127 125 124 122 119 117 114 112 113 113 112 112 109 104 99 95 92 89 86 82 77 72 68 64 60 57 54 50 47
294 298 302 305 310 314 317 319 321 319 318 321 323 317 302 290 283 281 283 284 285 278 256 221 198 190 183 178 175 168 165 171 169 161 159 158 155 155 154 152 152 151 151 150 149 150 150 149 147 146 146 145 143 142 141 141 140 137 134 131 128 126 124 121 119 117 116 115 115 113 111 107 102 99 96 93 89 85 80 75 69 65 61 57 53 49 45 43
289 294 298 302 306 309 313 315 316 314 313 315 318 312 293 281 277 274 272 272 270 267 252 220 196 189 183 179 177 172 172 177 170 160 158 157 157 159 159 157 157 156 154 154 154 154 153 151 150 149 148 148 147 146 144 143 142 138 135 133 130 128 126 124 123 121 120 120 120 118 114 109 104 101 98 94 90 84 77 72 67 63 59 55 50 46 42 39
284 290 294 297 301 305 308 310 312 311 309 311 314 311 292 273 270 267 260 262 265 255 237 214 195 187 183 181 180 175 176 181 171 160 159 158 159 163 163 162 162 161 160 160 160 159 157 155 155 154 153 152 150 149 146 144 141 138 136 134 132 130 129 127 127 126 127 127 127 125 119 113 107 103 100 96 90 82 75 68 63 59 56 52 47 42 38 36
279 285 289 292 296 300 303 306 308 308 306 307 310 311 298 275 266 262 252 251 260 247 226 206 194 188 183 182 183 179 179 182 174 164 162 161 161 165 167 167 166 166 166 166 165 164 162 160 158 157 157 155 153 151 147 144 141 139 138 136 134 133 132 132 132 133 134 135 133 129 122 117 112 107 103 97 90 81 73 64 56 51 48 44 40 35 31 29
275 280 283 286 290 294 298 301 304 304 303 303 304 307 300 279 267 262 254 246 247 240 223 204 194 190 186 185 186 182 181 182 175 167 165 164 164 167 169 169 169 169 170 170 169 168 166 163 161 160 159 157 155 152 149 146 144 143 142 140 139 139 139 139 140 142 142 142 139 134 128 122 117 112 104 96 87 77 67 55 45 39 35 32 29 26 23 21
269 274 277 281 285 289 294 298 300 300 299 298 298 300 297 279 266 262 256 247 239 236 228 211 197 193 190 188 187 184 182 182 177 170 168 168 167 169 170 170 170 171 172 172 171 169 167 166 164 162 161 160 157 155 152 150 150 149 147 146 147 148 148 148 149 150 150 148 145 140 135 128 121 113 104 90 73 61 51 41 33 27 24 22 20 18 17 15
265 269 272 275 279 284 291 294 295 295 293 291 291 292 288 272 260 257 254 245 236 234 233 221 205 197 195 191 188 185 184 183 179 173 172 172 171 171 171 171 172 173 174 174 172 170 170 170 168 165 164 163 161 158 157 156 155 155 154 154 155 156 156 156 156 157 157 155 153 149 145 138 130 121 105 76 49 36 31 28 23 20 16 14 13 13 13 11
260 264 267 270 274 279 286 290 290 288 286 284 283 282 278 266 252 249 246 240 234 234 235 228 212 202 197 193 189 186 184 183 181 178 176 176 174 172 172 173 175 176 177 176 174 174 175 174 172 169 168 166 163 161 161 161 161 162 161 161 164 164 163 163 164 165 165 164 163 161 157 150 142 132 106 51 22 14 14 14 14 12 9 7 7 7 8 7
256 260 262 265 270 274 280 285 285 283 281 280 279 277 275 267 250 242 240 234 227 228 232 229 216 205 199 194 190 187 185 185 185 182 180 180 177 173 173 175 177 178 177 176 176 178 179 178 176 174 172 169 166 166 168 169 169 169 169 170 172 170 170 171 173 174 175 175 175 172 168 166 160 157 145 353 357 357 359 2 3 1 0 0 1 2 3 2
253 256 259 261 265 269 276 281 281 279 278 278 277 275 273 268 254 241 237 233 225 220 222 223 215 207 200 195 191 189 188 188 188 185 183 182 178 175 176 179 179 179 178 178 178 180 182 182 179 178 177 173 170 172 175 176 176 177 178 178 177 176 177 179 180 182 184 188 191 192 190 190 196 221 269 309 334 343 348 352 354 354 354 354 355 356 357 356
249 252 255 257 262 265 271 276 277 277 277 276 275 272 269 267 259 244 237 235 227 218 216 219 213 205 199 195 194 193 191 191 191 189 188 185 180 178 181 182 183 183 182 182 182 184 186 185 183 183 180 176 175 180 182 182 183 184 185 184 182 182 184 186 189 190 194 201 206 209 211 213 222 245 272 300 320 330 338 344 348 349 349 349 350 351 351 350